Le nostre stazioni meteo in Italia

Pubblicità
Il mio iltempo24.it
Lecce, Italia (16332): Temperatura & dewpoint: 15.06.2019 00:00:00 - 21.06.2019 00:00:00 (CEST)Lecce, Italia (16332): velocità del vento: 15.06.2019 00:00:00 - 21.06.2019 00:00:00 (CEST)Lecce, Italia (16332): direzione del vento: 15.06.2019 00:00:00 - 21.06.2019 00:00:00 (CEST)Lecce, Italia (16332): reduced air pressure: 15.06.2019 00:00:00 - 21.06.2019 00:00:00 (CEST)Lecce, Italia (16332): visibility: 15.06.2019 00:00:00 - 21.06.2019 00:00:00 (CEST)
Data & Tempo tt [°C] td [°C] ff [km/h] ff [kn] dd ppp [hPa] vv [km]
21.06.2019 00:00:00 - - - - - - -
20.06.2019 23:00:00 24,0 20,9 4 2 E 1013,3 10
20.06.2019 22:00:00 24,0 21,0 5 3 SSO - 10
20.06.2019 21:00:00 25,0 21,0 5 3 SSO - 10
20.06.2019 20:00:00 27,4 20,5 8 4 OSO 1012,6 10
20.06.2019 19:00:00 28,0 19,0 11 6 OSO - 10
20.06.2019 18:00:00 30,0 21,0 13 7 OSO - 10
20.06.2019 17:00:00 31,0 20,9 15 8 S 1012,0 10
20.06.2019 16:00:00 32,0 17,0 9 5 NE - 10
20.06.2019 15:00:00 32,0 17,0 11 6 NE - 10
20.06.2019 14:00:00 32,4 18,2 16 9 NNE 1012,7 10
20.06.2019 13:00:00 32,0 18,0 13 7 N - 10
20.06.2019 12:00:00 31,0 19,0 9 5 N - 10
20.06.2019 11:00:00 30,0 19,1 4 2 N 1012,9 10
20.06.2019 10:00:00 29,0 20,0 8 4 NNE - 10
20.06.2019 09:00:00 28,0 21,0 5 3 - - 10
20.06.2019 08:00:00 24,0 22,6 4 2 N 1012,8 10
20.06.2019 07:00:00 21,0 20,0 4 2 - - 7
20.06.2019 06:00:00 19,0 18,0 4 2 - - 0,2
20.06.2019 05:00:00 20,0 19,2 4 2 N 1012,5 6
20.06.2019 04:00:00 20,0 19,0 2 1 - - 10
20.06.2019 03:00:00 21,0 20,0 2 1 - - 10
20.06.2019 02:00:00 21,2 20,4 4 2 N 1012,3 10
20.06.2019 01:00:00 21,0 21,0 2 1 - - 10
20.06.2019 00:00:00 22,0 21,0 2 1 - - 10
19.06.2019 23:00:00 22,4 21,2 4 2 N 1012,6 10
19.06.2019 22:00:00 24,0 22,0 4 2 - - 10
19.06.2019 21:00:00 25,0 23,0 4 2 - - 10
19.06.2019 20:00:00 26,6 22,2 5 3 SO 1012,1 10
19.06.2019 19:00:00 27,0 23,0 11 6 OSO - 10
19.06.2019 18:00:00 27,0 23,0 11 6 SO - 10
19.06.2019 17:00:00 27,4 23,9 15 8 SO 1012,5 10
19.06.2019 16:00:00 28,0 24,0 16 9 SO - 10
19.06.2019 15:00:00 - - - - - - -
19.06.2019 14:00:00 30,8 21,3 13 7 NE 1012,7 10
19.06.2019 13:00:00 30,0 20,0 13 7 NNE - 10
19.06.2019 12:00:00 30,0 21,0 13 7 N - 10
19.06.2019 11:00:00 28,2 21,7 9 5 NNE 1013,5 10
19.06.2019 10:00:00 27,0 22,0 9 5 N - 10
19.06.2019 09:00:00 26,0 22,0 11 6 NNE - 8
19.06.2019 08:00:00 23,6 22,6 11 6 N 1013,5 6
19.06.2019 07:00:00 22,0 21,0 4 2 - - 1,8
19.06.2019 06:00:00 20,0 19,0 5 3 NO - 2,2
19.06.2019 05:00:00 20,0 19,2 5 3 O 1013,3 7
19.06.2019 04:00:00 21,0 20,0 2 1 - - 8
19.06.2019 03:00:00 21,0 20,0 4 2 - - 10
19.06.2019 02:00:00 21,4 20,6 4 2 N 1014,0 10
19.06.2019 01:00:00 22,0 21,0 8 4 OSO - 10
19.06.2019 00:00:00 23,0 22,0 5 3 SSO - 10
18.06.2019 23:00:00 23,6 22,8 5 3 OSO 1013,9 10
18.06.2019 22:00:00 25,0 24,0 8 4 ENE - 10
18.06.2019 21:00:00 26,0 24,0 4 2 SO - 10
18.06.2019 20:00:00 26,8 24,1 9 5 SO 1012,8 10
18.06.2019 19:00:00 27,0 24,0 11 6 SO - 10
18.06.2019 18:00:00 27,0 25,0 9 5 NE - 10
18.06.2019 17:00:00 30,6 24,0 13 7 NE 1012,1 10
18.06.2019 16:00:00 31,0 24,0 5 3 - - 10
18.06.2019 15:00:00 31,0 22,0 5 3 - - 10
18.06.2019 14:00:00 30,0 21,4 15 8 N 1013,4 10
18.06.2019 13:00:00 30,0 22,0 11 6 NNE - 10
18.06.2019 12:00:00 30,0 23,0 15 8 NNE - 10
18.06.2019 11:00:00 29,0 24,1 13 7 N 1013,4 10
18.06.2019 10:00:00 28,0 23,0 13 7 NNE - 10
18.06.2019 09:00:00 27,0 22,0 16 9 NNE - 10
18.06.2019 08:00:00 24,4 22,3 15 8 N 1013,6 10
18.06.2019 07:00:00 22,0 21,0 8 4 NNE - 10
18.06.2019 06:00:00 20,0 19,0 4 2 - - 10
18.06.2019 05:00:00 20,2 18,9 4 2 N 1013,2 10
18.06.2019 04:00:00 21,0 20,0 8 4 NO - 10
18.06.2019 03:00:00 22,0 21,0 4 2 - - 10
18.06.2019 02:00:00 22,0 21,2 4 2 N 1013,0 10
18.06.2019 01:00:00 23,0 22,0 4 2 - - 10
18.06.2019 00:00:00 23,0 23,0 4 2 - - 10
17.06.2019 23:00:00 24,0 22,3 2 1 N 1012,8 10
17.06.2019 22:00:00 24,0 23,0 5 3 E - 10
17.06.2019 21:00:00 25,0 22,0 8 4 NNE - 10
17.06.2019 20:00:00 28,4 21,4 9 5 SO 1012,1 10
17.06.2019 19:00:00 30,0 24,0 5 3 SO - 10
17.06.2019 18:00:00 31,0 24,0 11 6 OSO - 10
17.06.2019 17:00:00 33,4 20,5 9 5 NNO 1011,3 10
17.06.2019 16:00:00 32,0 20,0 9 5 NNE - 10
17.06.2019 15:00:00 30,0 23,0 9 5 O - 10
17.06.2019 14:00:00 30,0 19,7 8 4 NNO 1012,3 10
17.06.2019 13:00:00 30,0 20,0 13 7 N - 10
17.06.2019 12:00:00 30,0 23,0 15 8 NNE - 10
17.06.2019 11:00:00 30,0 21,4 16 9 NNE 1012,4 10
17.06.2019 10:00:00 29,0 21,0 13 7 NNO - 10
17.06.2019 09:00:00 27,0 21,0 11 6 NNO - 10
17.06.2019 08:00:00 25,4 20,4 11 6 N 1012,7 10
17.06.2019 07:00:00 22,0 20,0 2 1 - - 10
17.06.2019 06:00:00 19,0 18,0 2 1 - - 10
17.06.2019 05:00:00 20,0 18,5 4 2 NO 1012,3 10
17.06.2019 04:00:00 21,0 19,0 9 5 N - 10
17.06.2019 03:00:00 19,0 18,0 2 1 - - 10
17.06.2019 02:00:00 21,0 19,5 4 2 N 1012,4 10
17.06.2019 01:00:00 21,0 19,0 5 3 OSO - 10
17.06.2019 00:00:00 22,0 20,0 8 4 O - 10
16.06.2019 23:00:00 22,0 20,3 5 3 O 1012,2 10
16.06.2019 22:00:00 24,0 21,0 5 3 NNO - 10
16.06.2019 21:00:00 24,0 21,0 9 5 NNO - 10
16.06.2019 20:00:00 25,8 21,0 16 9 N 1011,9 10
16.06.2019 19:00:00 27,0 20,0 22 12 N - 10
16.06.2019 18:00:00 29,0 20,0 21 11 NNE - 10
16.06.2019 17:00:00 30,6 20,5 22 12 N 1011,1 10
16.06.2019 16:00:00 31,0 20,0 22 12 N - 10
16.06.2019 15:00:00 32,0 20,0 22 12 N - 10
16.06.2019 14:00:00 32,0 18,6 18 10 NNO 1012,2 10
16.06.2019 13:00:00 32,0 18,0 15 8 NNO - 10
16.06.2019 12:00:00 31,0 19,0 15 8 NO - 10
16.06.2019 11:00:00 30,0 19,4 15 8 N 1012,5 10
16.06.2019 10:00:00 29,0 19,0 15 8 N - 10
16.06.2019 09:00:00 27,0 19,0 13 7 N - 10
16.06.2019 08:00:00 26,2 19,6 18 10 N 1011,8 10
16.06.2019 07:00:00 20,0 15,0 13 7 N - 10
16.06.2019 06:00:00 19,0 17,0 2 1 - - 10
16.06.2019 05:00:00 19,0 17,8 4 2 SSO 1011,3 10
16.06.2019 04:00:00 19,0 18,0 4 2 ENE - 10
16.06.2019 03:00:00 19,0 18,0 4 2 E - 10
16.06.2019 02:00:00 19,8 18,8 5 3 ESE 1011,4 10
16.06.2019 01:00:00 21,0 19,0 2 1 - - 10
16.06.2019 00:00:00 21,0 20,0 5 3 SO - 10
15.06.2019 23:00:00 22,6 20,1 4 2 N 1011,9 10
15.06.2019 22:00:00 25,0 22,0 8 4 ENE - 10
15.06.2019 21:00:00 28,0 22,0 4 2 S - 10
15.06.2019 20:00:00 28,8 21,3 5 3 E 1011,1 10
15.06.2019 19:00:00 31,0 20,0 13 7 NNE - 10
15.06.2019 18:00:00 33,0 18,0 15 8 N - 10
15.06.2019 17:00:00 33,8 19,1 16 9 N 1011,8 10
15.06.2019 16:00:00 34,0 18,0 16 9 N - 10
15.06.2019 15:00:00 33,0 17,0 21 11 N - 10
15.06.2019 14:00:00 33,0 18,8 16 9 NNO 1012,8 10
15.06.2019 13:00:00 31,0 18,0 16 9 NNE - 10
15.06.2019 12:00:00 32,0 18,0 11 6 NO - 10
15.06.2019 11:00:00 31,8 17,7 16 9 NO 1013,3 10
15.06.2019 10:00:00 30,0 18,0 13 7 ONO - 10
15.06.2019 09:00:00 28,0 18,0 11 6 N - 10
15.06.2019 08:00:00 26,0 16,8 9 5 NNO 1014,1 10
15.06.2019 07:00:00 20,0 16,0 4 2 - - 10
15.06.2019 06:00:00 17,0 16,0 4 2 - - 10
15.06.2019 05:00:00 17,0 15,0 2 1 - 1014,4 10
15.06.2019 04:00:00 16,0 15,0 8 4 OSO - 10
15.06.2019 03:00:00 17,0 15,0 5 3 - - 10
15.06.2019 02:00:00 17,0 15,0 2 1 N 1015,7 10
15.06.2019 01:00:00 17,0 15,0 11 6 O - 10
15.06.2019 00:00:00 20,0 17,0 4 2 - - 10

tt = Temperatura
td = dewpoint
ff = velocità del vento
dd = direzione del vento
ppp = reduced air pressure
vv = visibility

Stazioni seguenti

WeatherPro
AMSI
MeteoEarth